Hinesville, GA

10:39 AM EST on February 11, 2016 (GMT -0500)
Wright Army Air Field

Weather History for KLHW - March, 2014

Change the Weather History Date:

Tuesday, March 25, 2014

  Actual Average Record
Temperature  
Mean Temperature 58 °F -  
Max Temperature 69 °F 74 °F 88 °F (2007)
Min Temperature 44 °F 48 °F 33 °F (1968)
Degree Days  
Heating Degree Days 8    
Growing Degree Days 8 (Base 50)    
Moisture  
Dew Point 46 °F    
Average Humidity 81    
Maximum Humidity 100    
Minimum Humidity 28    
Precipitation  
Precipitation 0.10 in - - ()
Sea Level Pressure  
Sea Level Pressure 29.91 in    
Wind  
Wind Speed 7 mph (NNW)    
Max Wind Speed 25 mph    
Max Gust Speed 33 mph    
Visibility 10 miles    
Events Rain    
Averages and records for this station are not official NWS values.
T = Trace of Precipitation, MM = Missing Value Source: NWS Daily Summary

Daily Weather History Graph

Daily Weather History Graph

Search for Another Location

Airport or City:

Trip Planner

Search our weather history database for the weather conditions in past years. The results will help you decide how hot, cold, wet, or windy it might be!

Date:

Astronomy

Mar. 25, 2014 Rise Set
Actual Time 7:23 AM EDT 7:41 PM EDT
Civil Twilight 6:59 AM EDT 8:05 PM EDT
Nautical Twilight 6:30 AM EDT 8:34 PM EDT
Astronomical Twilight 6:01 AM EDT 9:03 PM EDT
Moon 3:26 AM EDT (3/25) 2:27 PM EDT (3/25)
Length of Visible Light 13h 06m
Length of Day
12h 17m
Waning Crescent, 32% of the Moon is Illuminated
Mar 25
Waning Crescent
Mar 30
New
Apr 7
First Quarter
Apr 15
Full
Apr 22
Last Quarter

Hourly Weather History & Observations

Time (EDT) Temp. Windchill Dew Point Humidity Pressure Visibility Wind Dir Wind Speed Gust Speed Precip Events Conditions
12:06 AM 51.8 °F - 48.2 °F 88% 30.01 in 10.0 mi East 6.9 mph - N/A Rain Light Rain
12:19 AM 51.8 °F - 48.2 °F 88% 30.00 in 10.0 mi ENE 4.6 mph - N/A   Overcast
12:57 AM 50.0 °F - 50.0 °F 100% 29.98 in 10.0 mi ENE 8.1 mph - N/A Rain Light Rain
12:58 AM 50.0 °F - 50.0 °F 100% 29.99 in 10.0 mi ENE 8.1 mph - 0.00 in Rain Light Rain
1:03 AM 50.0 °F - 50.0 °F 100% 29.98 in 10.0 mi NE 6.9 mph - N/A Rain Light Rain
1:14 AM 50.0 °F - 50.0 °F 100% 29.98 in 10.0 mi NNE 6.9 mph - N/A   Overcast
1:25 AM 51.8 °F - 51.8 °F 100% 29.99 in 10.0 mi NNE 6.9 mph - N/A Rain Light Rain
1:35 AM 50.0 °F - 50.0 °F 100% 29.98 in 7.0 mi NNE 5.8 mph - N/A Rain Heavy Rain
1:58 AM 50.9 °F - 50.9 °F 100% 29.98 in 10.0 mi North 4.6 mph - 0.04 in Rain Light Rain
2:09 AM 50.0 °F - 50.0 °F 100% 29.97 in 10.0 mi North 3.5 mph - N/A   Overcast
2:23 AM 50.0 °F - 50.0 °F 100% 29.97 in 10.0 mi NNW 5.8 mph - N/A   Light Drizzle
2:58 AM 50.4 °F - 50.4 °F 100% 29.97 in 10.0 mi NNE 5.8 mph - 0.00 in Rain Light Rain
3:52 AM 50.0 °F - 50.0 °F 100% 29.93 in 10.0 mi NE 8.1 mph - N/A   Overcast
3:58 AM 49.5 °F - 49.5 °F 100% 29.94 in 10.0 mi NNE 5.8 mph - 0.01 in   Overcast
4:18 AM 50.0 °F - 50.0 °F 100% 29.92 in 10.0 mi North 6.9 mph - N/A   Overcast
4:44 AM 48.2 °F - 48.2 °F 100% 29.93 in 10.0 mi North 6.9 mph - N/A Rain Light Rain
4:49 AM 48.2 °F - 48.2 °F 100% 29.92 in 10.0 mi North 8.1 mph - N/A Rain Light Rain
4:58 AM 48.7 °F - 48.7 °F 100% 29.92 in 10.0 mi North 9.2 mph - 0.00 in Rain Light Rain
5:02 AM 48.2 °F - 48.2 °F 100% 29.92 in 10.0 mi NNE 6.9 mph - N/A   Overcast
5:07 AM 48.2 °F - 48.2 °F 100% 29.92 in 10.0 mi North 3.5 mph - N/A   Overcast
5:09 AM 48.2 °F - 48.2 °F 100% 29.92 in 10.0 mi North 5.8 mph - N/A Rain Light Rain
5:14 AM 48.2 °F - 48.2 °F 100% 29.92 in 9.0 mi North 4.6 mph - N/A Rain Light Rain
5:29 AM 48.2 °F - 48.2 °F 100% 29.90 in 6.0 mi Calm Calm - N/A Rain Light Rain
5:39 AM 48.2 °F - 48.2 °F 100% 29.90 in 8.0 mi NE 2.3 mph - N/A Rain Light Rain
5:43 AM 48.2 °F - 48.2 °F 100% 29.90 in 10.0 mi NNE 4.6 mph - N/A   Overcast
5:58 AM 48.2 °F - 48.2 °F 100% 29.91 in 10.0 mi NNE 3.5 mph - 0.05 in   Overcast
6:58 AM 48.4 °F - 48.4 °F 100% 29.90 in 10.0 mi NNW 2.3 mph - N/A   Overcast
7:33 AM 48.2 °F - 48.2 °F 100% 29.90 in 10.0 mi WNW 2.3 mph - N/A   Overcast
7:48 AM 48.2 °F - 48.2 °F 100% 29.89 in 10.0 mi Calm Calm - N/A   Mostly Cloudy
7:53 AM 48.2 °F - 48.2 °F 100% 29.89 in 10.0 mi NE 1.2 mph - N/A   Mostly Cloudy
7:57 AM 48.2 °F - 48.2 °F 100% 29.89 in 10.0 mi ENE 1.2 mph - N/A   Mostly Cloudy
7:58 AM 48.2 °F - 48.2 °F 100% 29.88 in 10.0 mi ENE 1.2 mph - N/A   Mostly Cloudy
8:03 AM 48.2 °F - 48.2 °F 100% 29.88 in 10.0 mi Calm Calm - N/A   Overcast
8:18 AM 48.2 °F - 48.2 °F 100% 29.90 in 10.0 mi NNW 3.5 mph - N/A   Mostly Cloudy
8:33 AM 48.2 °F - 48.2 °F 100% 29.90 in 10.0 mi North 2.3 mph - N/A   Overcast
8:38 AM 48.2 °F - 48.2 °F 100% 29.91 in 10.0 mi Variable 1.2 mph - N/A   Overcast
8:58 AM 48.7 °F - 48.7 °F 100% 29.92 in 10.0 mi West 1.2 mph - N/A   Overcast
9:58 AM 50.5 °F - 50.5 °F 100% 29.91 in 10.0 mi SSW 3.5 mph - N/A   Overcast
10:03 AM 50.0 °F - 50.0 °F 100% 29.90 in 10.0 mi Variable 2.3 mph - N/A   Overcast
10:18 AM 51.8 °F - 51.8 °F 100% 29.90 in 10.0 mi SW 2.3 mph - N/A   Overcast
10:38 AM 53.6 °F - 53.6 °F 100% 29.89 in 10.0 mi SW 4.6 mph - N/A   Mostly Cloudy
10:43 AM 53.6 °F - 53.6 °F 100% 29.89 in 10.0 mi South 3.5 mph - N/A   Scattered Clouds
10:58 AM 55.2 °F - 54.5 °F 97% 29.90 in 10.0 mi Variable 4.6 mph - N/A   Partly Cloudy
11:33 AM 60.8 °F - 55.4 °F 82% 29.88 in 10.0 mi Variable 6.9 mph - N/A   Mostly Cloudy
11:53 AM 60.8 °F - 53.6 °F 77% 29.87 in 10.0 mi WSW 8.1 mph - N/A   Mostly Cloudy
11:58 AM 61.7 °F - 53.8 °F 75% 29.87 in 10.0 mi Variable 6.9 mph - N/A   Mostly Cloudy
12:03 PM 62.6 °F - 53.6 °F 72% 29.86 in 10.0 mi WSW 11.5 mph - N/A   Scattered Clouds
12:58 PM 64.8 °F - 51.1 °F 61% 29.83 in 10.0 mi West 12.7 mph - N/A   Mostly Cloudy
1:28 PM 68.0 °F - 46.4 °F 46% 29.80 in 10.0 mi West 17.3 mph 26.5 mph N/A   Clear
1:58 PM 68.7 °F - 45.9 °F 44% 29.79 in 10.0 mi WSW 17.3 mph 28.8 mph N/A   Partly Cloudy
2:11 PM 69.8 °F - 42.8 °F 38% 29.78 in 10.0 mi West 19.6 mph 31.1 mph N/A   Partly Cloudy
2:39 PM 69.8 °F - 42.8 °F 38% 29.77 in 10.0 mi WNW 16.1 mph 31.1 mph N/A   Partly Cloudy
2:58 PM 69.1 °F - 39.4 °F 34% 29.77 in 10.0 mi West 23.0 mph 28.8 mph N/A   Partly Cloudy
3:37 PM 68.0 °F - 35.6 °F 30% 29.76 in 10.0 mi West 19.6 mph 33.4 mph N/A   Clear
3:58 PM 68.0 °F - 33.6 °F 28% 29.77 in 10.0 mi WNW 17.3 mph 33.4 mph N/A   Clear
4:43 PM 66.2 °F - 32.0 °F 28% 29.79 in 10.0 mi NW 18.4 mph 33.4 mph N/A   Clear
4:58 PM 66.0 °F - 32.4 °F 29% 29.80 in 10.0 mi WNW 23.0 mph 28.8 mph N/A   Clear
5:58 PM 63.5 °F - 29.7 °F 28% 29.84 in 10.0 mi WNW 24.2 mph 31.1 mph N/A   Clear
6:58 PM 59.4 °F - 25.9 °F 28% 29.88 in 10.0 mi NW 25.3 mph 29.9 mph N/A   Clear
7:58 PM 54.9 °F - 25.3 °F 32% 29.94 in 10.0 mi WNW 13.8 mph 29.9 mph N/A   Clear
8:58 PM 51.6 °F - 24.3 °F 34% 30.00 in 10.0 mi NW 16.1 mph 33.4 mph N/A   Clear
9:58 PM 48.4 °F - 23.5 °F 38% 30.06 in 10.0 mi NNW 12.7 mph 19.6 mph N/A   Clear
10:58 PM 46.2 °F 41.7 °F 21.6 °F 38% 30.10 in 10.0 mi NW 9.2 mph - N/A   Clear
11:58 PM 44.8 °F 38.0 °F 21.4 °F 40% 30.11 in 10.0 mi WNW 15.0 mph 21.9 mph N/A   Clear